AirNav   TITAN Aviation Fuels
 
 504 users online  

KJQD Ohio County Airport
Hartford, Kentucky, USA

GOING TO HARTFORD?


FAA INFORMATION EFFECTIVE 08 SEPTEMBER 2022

Location

FAA Identifier: JQD
Lat/Long: 37-27-30.7720N 086-50-59.3670W
37-27.512867N 086-50.989450W
37.4585478,-86.8498242
(estimated)
Elevation: 537 ft. / 163.7 m (surveyed)
Variation: 02W (2000)
From city: 3 miles NE of HARTFORD, KY
Time zone: UTC -5 (UTC -6 during Standard Time)
Zip code: 42320

Airport Operations

Airport use: Open to the public
Activation date: 06/1984
Control tower: no
ARTCC: INDIANAPOLIS CENTER
FSS: LOUISVILLE FLIGHT SERVICE STATION
NOTAMs facility: LOU (NOTAM-D service available)
Attendance: MON - FRI 0900-1700
SVC AFT HR - AMGR.
Wind indicator: lighted
Segmented circle: yes
Lights: DUSK-DAWN ACTVT PAPI RWY 03 & 21; MIRL RWY 03/21 - CTAF.
Beacon: white-green (lighted land airport)
Operates sunset to sunrise.

Airport Communications

CTAF/UNICOM: 122.8
WX AWOS-3PT: 132.1 (270-298-7936)
EVANSVILLE APPROACH: 124.025
EVANSVILLE DEPARTURE: 124.025
  • APCH/DEP SVC PRVDD BY INDIANAPOLIS ARTCC 0N FREQS 128.3/284.65 (EVANSVILLE RCAG) WHEN EVANSVILLE APCH CTL CLSD.

Nearby radio navigation aids

VOR radial/distance  VOR name  Freq  Var
OWBr143/22.8OWENSBORO VOR/DME108.6004W
MYSr229/(38.8)MYSTIC VOR108.2001W

Airport Services

Fuel available: 100LL
Parking: hangars and tiedowns
Airframe service: MAJOR
Powerplant service: MAJOR
Bulk oxygen: NONE

Runway Information

Runway 3/21

Dimensions: 5003 x 75 ft. / 1525 x 23 m
Surface: asphalt, in fair condition
Weight bearing capacity: 
PCN 10 /F/D/X/T
Single wheel: 27.0
Runway edge lights: medium intensity
RUNWAY 3  RUNWAY 21
Latitude: 37-27.138372N37-27.887367N
Longitude: 086-51.205412W086-50.773437W
Elevation: 530.1 ft.537.0 ft.
Traffic pattern: leftleft
Runway heading: 027 magnetic, 025 true207 magnetic, 205 true
Markings: nonprecision, in fair conditionnonprecision, in fair condition
Visual slope indicator: 2-light PAPI on left (3.00 degrees glide path)2-light PAPI on left (3.50 degrees glide path)
Runway end identifier lights: yesyes
Touchdown point: yes, no lightsyes, no lights
Obstructions: 27 ft. trees, 590 ft. from runway, 133 ft. left of centerline, 14:1 slope to clear71 ft. trees, 1305 ft. from runway, 413 ft. right of centerline, 15:1 slope to clear

Airport Ownership and Management from official FAA records

Ownership: Publicly-owned
Owner: OHIO COUNTY AIRPORT BOARD
340 AIRPORT ROAD
HARTFORD, KY 42347
Phone 270-298-3500
Manager: DAVID WOOSLEY
340 AIRPORT ROAD
HARTFORD, KY 42347
Phone 270-993-0867

Airport Operational Statistics

Aircraft based on the field: 11
Single engine airplanes: 10
Multi engine airplanes: 1
    
Aircraft operations: avg 22/day *
56% transient general aviation
38% local general aviation
4% air taxi
2% military
* for 12-month period ending 18 November 2020

Additional Remarks

FOR CD CTC EVANSVILLE APCH AT 812-436-4690, WHEN APCH CLSD CTC INDIANAPOLIS ARTCC AT 317-247-2411.

Instrument Procedures

NOTE: All procedures below are presented as PDF files. If you need a reader for these files, you should download the free Adobe Reader.

NOT FOR NAVIGATION. Please procure official charts for flight.
FAA instrument procedures published for use from 8 September 2022 at 0901Z to 6 October 2022 at 0900Z.

 
IAPs - Instrument Approach Procedures
RNAV (GPS) RWY 03   download (222KB)
RNAV (GPS) RWY 21   download (245KB)
NOTE: Special Alternate Minimums apply   download (150KB)
NOTE: Special Take-Off Minimums/Departure Procedures apply   download (126KB)

Other nearby airports with instrument procedures:

M21 - Muhlenberg County Airport (20 nm SW)
KOWB - Owensboro/Daviess County Regional Airport (23 nm NW)
2I0 - Madisonville Regional Airport (27 nm W)
I93 - Breckinridge County Airport (28 nm NE)
M20 - Leitchfield-Grayson County Airport (28 nm E)
 
Loc | Ops | Rwys | IFR | FBO | Links
Com | Nav | Svcs | Stats | Notes
Area around KJQD (Ohio County Airport)
 
Road maps at: MapQuest Bing Google
 
Aerial photo
WARNING: Photo may not be current or correct
Aerial photo of KJQD (Ohio County Airport)
Do you have a better or more recent aerial photo of Ohio County Airport that you would like to share? If so, please send us your photo.

 
Sectional chart

 
Airport distance calculator
Flying to Ohio County Airport? Find the distance to fly.

From to KJQD

Sunrise and sunset
Times for 03-Oct-2022
 Local
(UTC-5)
 Zulu
(UTC)
Morning civil twilight06:2011:20
Sunrise06:4611:46
Sunset18:2723:27
Evening civil twilight18:5323:53

Current date and time
Zulu (UTC)  03-Oct-2022 10:29:01
Local (UTC-5)  03-Oct-2022 05:29:01
 
METAR
KM21 
20nm SW 
031015Z AUTO 00000KT 10SM CLR 08/07 A3022 RMK AO2 T00780073
KOWB 
22nm NW 
030956Z AUTO 01003KT 10SM CLR 12/08 A3024 RMK AO2 SLP240 T01170083
K2I0 
27nm W 
031015Z AUTO 01003KT 10SM CLR 10/08 A3024 RMK AO2 T00990082
KKY8 
30nm N 
031015Z AUTO 03005KT 10SM CLR 08/08 A3025 RMK A01
KBWG 
36nm SE 
030953Z AUTO 03003KT 10SM CLR 11/08 A3021 RMK AO2 SLP227 T01110083
TAF
KOWB 
22nm NW 
030520Z 0306/0406 03004KT P6SM SKC FM031500 03007KT P6SM SKC FM031700 03007G15KT P6SM SKC FM032300 04006KT P6SM SKC FM040200 VRB02KT P6SM SKC
NOTAMs
Click for the latest NOTAMs
NOTAMs are issued by the DoD/FAA and will open in a separate window not controlled by AirNav.

 

 
 

FBO, Fuel Providers, and Aircraft Ground Support

  
 Business Name 
 
 Contact 
 
 Services / Description 
 
Fuel Prices
 
Comments
  
Leading Edge Aircraft Services, LLC 270-993-0867
no information available

If you are affiliated with Leading Edge Aircraft Services, LLC and would like to show here your services, contact info, web link, logo, and more, click here
100LL
SS $6.00 
 Updated 22-Sep-2022
 
   2 read write
SS=Self service
Update Fuel Prices
 

Would you like to see your business listed on this page?

 If your business provides an interesting product or service to pilots, flight crews, aircraft, or users of the Ohio County Airport, you should consider listing it here.  To start the listing process, click on the button below
 
Add a business
 

Other Pages about Ohio County Airport

Update a link
 
Copyright © AirNav, LLC. All rights reserved. Privacy Policy  Contact